Regional Weather Roundup
Issued by NWS Charleston, WV

Home | Current Version | Previous Version | Graphics & Text | Print | Product List | Glossary On
Versions: 1 2 3 4 5 6 7 8 9 10 11 12 13 14 15 16 17 18 19 20 21 22 23 24 25 26 27 28 29 30 31 32 33 34 35 36 37 38 39 40 41 42 43 44 45 46 47 48 49 50
000
ASUS41 KRLX 280510
RWRRLX
West Virginia Regional Weather Roundup
National Weather Service Charleston WV
1200 AM EST FRI NOV 28 2014

Note: "fair" indicates few or no clouds below 12,000 feet with no
significant weather and/or obstructions to visibility.

WVZ003-280600-
Northern Panhandle of West Virginia

CITY           SKY/WX    TMP DP  RH WIND       PRES   REMARKS
WHEELING       LGT SNOW  28  24  85 W13G20    30.23R FOG
$$

WVZ009-280600-
Northwest West Virginia

CITY           SKY/WX    TMP DP  RH WIND       PRES   REMARKS
PARKERSBURG    CLOUDY    30  21  69 W12       30.34R
$$

WVZ006-280600-
Western West Virginia

CITY           SKY/WX    TMP DP  RH WIND       PRES   REMARKS
HUNTINGTON     FLURRIES  30  24  78 W7        30.35S
$$

WVZ015-280600-
West Central West Virginia

CITY           SKY/WX    TMP DP  RH WIND       PRES   REMARKS
CHARLESTON     LGT SNOW  30  26  85 W9        30.33S FOG
$$

WVZ022-031-280600-
North Central West Virginia

CITY           SKY/WX    TMP DP  RH WIND       PRES   REMARKS
CLARKSBURG     CLOUDY    29  25  85 W8        30.26R
MORGANTOWN     CLOUDY    29  21  72 SW7       30.24S
$$

WVZ025-035-042-045-280600-
Southern West Virginia

CITY           SKY/WX    TMP DP  RH WIND       PRES   REMARKS
BECKLEY        LGT SNOW  25  21  85 NW10      30.22F FOG
LOGAN          CLOUDY    28  25  86 VRB6G18   30.30S
BLUEFIELD      LGT SNOW  25  19  78 NW10      30.21F
LEWISBURG      FLURRIES  28  22  76 W7        30.20F
$$

WVZ047-280600-
Northern Mountains of West Virginia

CITY           SKY/WX    TMP DP  RH WIND       PRES   REMARKS
ELKINS         LGT SNOW  26  23  88 W7        30.21S FOG
$$

WVZ052-280600-
Eastern Panhandle of West Virginia

CITY           SKY/WX    TMP DP  RH WIND       PRES   REMARKS
MARTINSBURG    PTCLDY    34  19  54 W5        30.19S
PETERSBURG     CLOUDY    32  20  61 W7        30.23S
$$



USA.gov is the U.S. government's official web portal to all federal, state and local government web resources and services.